WetterOnline ( https://www.wetteronline.ch )

Wetter aktuell Waibstadt

Aktuelles Wetter: Waibstadt (237m)

6-stündlich | Neueste Meldungen
Ortszeit Temperatur Wetter
Do, 09.07. 2:00 15.8° C bedeckt
Mi, 08.07. 20:00 18.3° C bedeckt
Mi, 08.07. 14:00 20.7° C bewölkt
Mi, 08.07. 8:00 15.3° C bewölkt
Mi, 08.07. 2:00 12.3° C fast wolkenlos
Di, 07.07. 20:00 20.9° C wolkenlos
Di, 07.07. 14:00 19.1° C leicht bewölkt
Di, 07.07. 8:00 12.0° C wolkenlos
Ortszeit Temperatur Wetter
Do, 09.07. 7:00 15.3° C leicht bewölkt
Do, 09.07. 6:50 15.3° C leicht bewölkt
Do, 09.07. 6:40 14.1° C wolkig
Do, 09.07. 6:30 14.1° C bewölkt
Do, 09.07. 6:20 14.1° C bewölkt
Do, 09.07. 6:10 14.1° C bedeckt
Do, 09.07. 6:00 14.2° C bedeckt
Do, 09.07. 5:30 14.1° C wolkig
Do, 09.07. 5:00 14.5° C wolkig
Do, 09.07. 4:30 14.4° C wolkig
Do, 09.07. 4:00 14.7° C bewölkt
Ortszeit Relative Feuchte Sichtweite
Do, 09.07. 2:00 85% 45 km
Mi, 08.07. 20:00 64% 60 km
Mi, 08.07. 14:00 48% 55 km
Mi, 08.07. 8:00 67% 55 km
Mi, 08.07. 2:00 78% 55 km
Di, 07.07. 20:00 38% 55 km
Di, 07.07. 14:00 44% 50 km
Di, 07.07. 8:00 74% 50 km
Ortszeit Relative Feuchte Sichtweite
Do, 09.07. 7:00 88% 45 km
Do, 09.07. 6:50 88% -
Do, 09.07. 6:40 92% -
Do, 09.07. 6:30 93% 35 km
Do, 09.07. 6:20 93% -
Do, 09.07. 6:10 92% -
Do, 09.07. 6:00 92% 30 km
Do, 09.07. 5:30 92% 35 km
Do, 09.07. 5:00 91% 45 km
Do, 09.07. 4:30 90% 50 km
Do, 09.07. 4:00 89% 50 km
Ortszeit Niederschlagsmenge Niederschlagsart
Do, 09.07. 2:00 0.1 l/m2 in 6 Std. Regen
Mi, 08.07. 20:00 0.1 l/m2 in 12 Std. Regen
Mi, 08.07. 14:00 0.1 l/m2 in 6 Std. Regen
Mi, 08.07. 8:00 0.0 l/m2 in 12 Std. -
Mi, 08.07. 2:00 0.0 l/m2 in 6 Std. -
Di, 07.07. 20:00 0.0 l/m2 in 12 Std. -
Di, 07.07. 14:00 0.0 l/m2 in 6 Std. -
Di, 07.07. 8:00 0.1 l/m2 in 12 Std. -
Ortszeit Niederschlagsmenge Niederschlagsart
Do, 09.07. 7:00 0.0 l/m2 in 1 Std. -
Do, 09.07. 6:50 keine Meldung -
Do, 09.07. 6:40 keine Meldung -
Do, 09.07. 6:30 0.0 l/m2 in 1 Std. -
Do, 09.07. 6:20 keine Meldung -
Do, 09.07. 6:10 keine Meldung -
Do, 09.07. 6:00 0.0 l/m2 in 1 Std. -
Do, 09.07. 5:30 0.0 l/m2 in 1 Std. -
Do, 09.07. 5:00 0.0 l/m2 in 1 Std. -
Do, 09.07. 4:30 0.0 l/m2 in 1 Std. -
Do, 09.07. 4:00 0.0 l/m2 in 1 Std. -
Ortszeit Stärke Spitze Richtung
km/h Bft. km/h Grad Sektor
Do, 09.07. 2:00 6 1 15 160° S
Mi, 08.07. 20:00 7 2 25 60° NO
Mi, 08.07. 14:00 15 3 33 290° W
Mi, 08.07. 8:00 11 2 19 250° W
Mi, 08.07. 2:00 0 0 11 - -
Di, 07.07. 20:00 7 2 25 320° NW
Di, 07.07. 14:00 7 2 22 290° W
Di, 07.07. 8:00 4 1 7 20° N
Ortszeit Stärke Spitze Richtung
km/h Bft. km/h Grad Sektor
Do, 09.07. 7:00 4 1 7 130° SO
Do, 09.07. 6:50 4 1 - 130° SO
Do, 09.07. 6:40 4 1 - 140° SO
Do, 09.07. 6:30 4 1 7 110° O
Do, 09.07. 6:20 4 1 - 110° O
Do, 09.07. 6:10 4 1 - 70° O
Do, 09.07. 6:00 4 1 7 90° O
Do, 09.07. 5:30 4 1 7 70° O
Do, 09.07. 5:00 4 1 7 80° O
Do, 09.07. 4:30 4 1 7 140° SO
Do, 09.07. 4:00 4 1 7 90° O
Ortszeit Untergrenze Bedeckung Gattung
total tief tief mittel hoch
Do, 09.07. 2:00 1500 m 8/8 8/8 - - -
Mi, 08.07. 20:00 1500 m 8/8 8/8 - - -
Mi, 08.07. 14:00 1500 m 7/8 7/8 - - -
Mi, 08.07. 8:00 1800 m 8/8 4/8 - - -
Mi, 08.07. 2:00 3300 m 1/8 1/8 - - -
Di, 07.07. 20:00 - 0/8 0/8 - - -
Di, 07.07. 14:00 1800 m 3/8 3/8 - - -
Di, 07.07. 8:00 - 0/8 0/8 - - -
Ortszeit Bedeckungsgrad in Achtel und Wolkenuntergrenze
Do, 09.07. 7:00 1(2700m) 5(4200m) 5(4800m)
Do, 09.07. 6:50 1(2700m) 5(4200m) 5(4800m)
Do, 09.07. 6:40 1(2700m) 7(4200m) 7(4800m)
Do, 09.07. 6:30 4(3000m) 7(4200m) 7(4800m)
Do, 09.07. 6:20 4(3000m) 7(4200m) 7(4800m)
Do, 09.07. 6:10 7(3000m) 8(4200m) 8(4800m)
Do, 09.07. 6:00 7(3000m) 8(4500m) 8(4800m)
Do, 09.07. 5:30 1(1800m) 7(4500m) 7(7200m)
Do, 09.07. 5:00 5(1800m) 6(5400m) 7(10500m)
Do, 09.07. 4:30 6(1800m) 6(5700m) 6(10500m)
Do, 09.07. 4:00 7(1500m) 7(5400m) 8(6300m)
Ortszeit Luftdruck NN (hPa) Tendenz (hPa in 3 Std.)
Do, 09.07. 2:00 1018 - 0,6
Mi, 08.07. 20:00 1017 + 0,7
Mi, 08.07. 14:00 1017 + 0,1
Mi, 08.07. 8:00 1017 - 0,2
Mi, 08.07. 2:00 1019 - 0,1
Di, 07.07. 20:00 1018 - 1,3
Di, 07.07. 14:00 1021 - 0,7
Di, 07.07. 8:00 1023 + 0,4
Ortszeit Luftdruck NN (hPa) Tendenz (hPa in 3 Std.)
Do, 09.07. 7:00 1017 - 0,1
Do, 09.07. 6:50 1017 keine Meldung
Do, 09.07. 6:40 1017 keine Meldung
Do, 09.07. 6:30 1017 - 0,2
Do, 09.07. 6:20 1017 keine Meldung
Do, 09.07. 6:10 1017 keine Meldung
Do, 09.07. 6:00 1017 - 0,5
Do, 09.07. 5:30 1017 - 0,4
Do, 09.07. 5:00 1017 - 0,8
Do, 09.07. 4:30 1017 - 0,9
Do, 09.07. 4:00 1017 - 1,0
Ortszeit Schneehöhe (cm)
Do, 09.07. 2:00 -
Mi, 08.07. 20:00 -
Mi, 08.07. 14:00 -
Mi, 08.07. 8:00 -
Mi, 08.07. 2:00 -
Di, 07.07. 20:00 -
Di, 07.07. 14:00 -
Di, 07.07. 8:00 -
Ortszeit Schneehöhe (cm)
Do, 09.07. 7:00 -
Do, 09.07. 6:50 -
Do, 09.07. 6:40 -
Do, 09.07. 6:30 -
Do, 09.07. 6:20 -
Do, 09.07. 6:10 -
Do, 09.07. 6:00 -
Do, 09.07. 5:30 -
Do, 09.07. 5:00 -
Do, 09.07. 4:30 -
Do, 09.07. 4:00 -
Link zu dieser Seite / Seite empfehlen

Das Wetter in ...